• In Hungary
  • List of Countries
  • For 7 days
  • Water Temperature
  • Satellite Maps
  • Weather Map
  • News
  • Weather Widgets
  • user-avatar
    Login

    Hourly Weather Niemcowa

    Today, 18 November, Saturday

    Time Temperature Precipitation Wind Pressure Humidity
    00:00 +2°C° 0.3 mm 1 mps 709 mmHg 94%
    01:00 +2°C° 0.3 mm 1 mps 709 mmHg 94%
    02:00 +2°C° 0.3 mm 1 mps 709 mmHg 95%
    03:00 +2°C° 0.3 mm 1 mps 709 mmHg 95%
    04:00 +2°C° 0.3 mm 1 mps 708 mmHg 95%
    05:00 +2°C° 0.2 mm 1 mps 708 mmHg 95%
    06:00 +2°C° 0.2 mm 1 mps 708 mmHg 95%
    07:00 +2°C° 0.2 mm 1 mps 708 mmHg 95%
    08:00 +2°C° 0.1 mm 1 mps 708 mmHg 93%
    09:00 +3°C° 0.1 mm 1 mps 708 mmHg 91%
    10:00 +3°C° 0.1 mm 1 mps 708 mmHg 89%
    11:00 +3°C° 0 mm 1 mps 708 mmHg 87%
    12:00 +4°C° 0 mm 1 mps 707 mmHg 85%
    13:00 +4°C° 0 mm 1 mps 707 mmHg 83%
    14:00 +3°C° 0 mm 1 mps 707 mmHg 85%
    15:00 +3°C° 0 mm 1 mps 706 mmHg 87%
    16:00 +2°C° 0 mm 1 mps 706 mmHg 88%
    17:00 +2°C° 0 mm 1 mps 705 mmHg 89%
    18:00 +1°C° 0 mm 1 mps 705 mmHg 90%
    19:00 +1°C° 0 mm 1 mps 705 mmHg 91%
    20:00 +1°C° 0 mm 1 mps 704 mmHg 90%
    21:00 0°C° 0 mm 1 mps 704 mmHg 89%
    22:00 -2°C° 0 mm 2 mps 704 mmHg 88%
    23:00 -2°C° 0 mm 2 mps 704 mmHg 88%

    Tomorrow, 19 November, Sunday

    Time Temperature Precipitation Wind Pressure Humidity
    00:00 -2°C° 0 mm 2 mps 703 mmHg 88%
    01:00 -2°C° 0 mm 2 mps 703 mmHg 87%
    02:00 -2°C° 0 mm 2 mps 703 mmHg 88%
    03:00 -2°C° 0 mm 2 mps 702 mmHg 88%
    04:00 -2°C° 0 mm 2 mps 702 mmHg 89%
    05:00 -2°C° 0 mm 2 mps 702 mmHg 89%
    06:00 -2°C° 0 mm 2 mps 702 mmHg 89%
    07:00 -2°C° 0 mm 2 mps 702 mmHg 90%
    08:00 -1°C° 0 mm 2 mps 702 mmHg 85%
    09:00 +1°C° 0 mm 2 mps 703 mmHg 79%
    10:00 +1°C° 0 mm 3 mps 703 mmHg 74%
    11:00 +1°C° 0 mm 3 mps 703 mmHg 72%
    12:00 +2°C° 0 mm 3 mps 702 mmHg 70%
    13:00 +2°C° 0 mm 3 mps 702 mmHg 68%
    14:00 +1°C° 0 mm 3 mps 702 mmHg 73%
    15:00 +1°C° 0 mm 2 mps 702 mmHg 78%
    16:00 -2°C° 0 mm 2 mps 702 mmHg 82%
    17:00 -2°C° 0 mm 2 mps 701 mmHg 83%
    18:00 -2°C° 0 mm 2 mps 701 mmHg 84%
    19:00 -2°C° 0 mm 2 mps 701 mmHg 84%
    20:00 -2°C° 0.2 mm 3 mps 701 mmHg 85%
    21:00 -2°C° 0.2 mm 3 mps 702 mmHg 85%
    22:00 -1°C° 0.2 mm 3 mps 702 mmHg 86%
    23:00 -2°C° 0.1 mm 3 mps 702 mmHg 87%

    Day after tomorrow, 20 November, Monday

    Time Temperature Precipitation Wind Pressure Humidity
    00:00 -2°C° 0.1 mm 3 mps 702 mmHg 88%
    01:00 -4°C° 0.1 mm 3 mps 702 mmHg 89%
    02:00 -4°C° 0 mm 3 mps 702 mmHg 88%
    03:00 -4°C° 0 mm 3 mps 702 mmHg 88%
    04:00 -3°C° 0 mm 2 mps 702 mmHg 88%
    05:00 -4°C° 0 mm 3 mps 702 mmHg 87%
    06:00 -2°C° 0 mm 3 mps 703 mmHg 86%
    07:00 -2°C° 0 mm 3 mps 703 mmHg 85%
    08:00 -2°C° 0.1 mm 4 mps 703 mmHg 81%
    09:00 -1°C° 0.1 mm 5 mps 704 mmHg 78%
    10:00 -1°C° 0.1 mm 5 mps 704 mmHg 74%
    11:00 0°C° 0.1 mm 5 mps 704 mmHg 73%
    12:00 0°C° 0.1 mm 5 mps 704 mmHg 73%
    13:00 0°C° 0.1 mm 4 mps 704 mmHg 72%
    14:00 -1°C° 0.1 mm 4 mps 704 mmHg 76%
    15:00 -1°C° 0.1 mm 3 mps 704 mmHg 81%
    16:00 -1°C° 0.1 mm 2 mps 704 mmHg 85%
    17:00 -2°C° 0.1 mm 2 mps 704 mmHg 86%
    18:00 -2°C° 0.1 mm 2 mps 704 mmHg 87%
    19:00 -2°C° 0.1 mm 2 mps 704 mmHg 88%
    20:00 -2°C° 0.1 mm 2 mps 704 mmHg 88%
    21:00 -2°C° 0.1 mm 2 mps 704 mmHg 88%
    22:00 -2°C° 0.1 mm 2 mps 704 mmHg 88%
    23:00 -1°C° 0.1 mm 2 mps 704 mmHg 88%

    21 November, Tuesday

    Time Temperature Precipitation Wind Pressure Humidity
    00:00 -1°C° 0.1 mm 2 mps 703 mmHg 88%
    01:00 -1°C° 0.1 mm 2 mps 702 mmHg 88%
    02:00 -1°C° 0.2 mm 3 mps 702 mmHg 87%
    03:00 -1°C° 0.2 mm 3 mps 701 mmHg 87%
    04:00 -1°C° 0.2 mm 4 mps 700 mmHg 87%
    05:00 -1°C° 0.2 mm 4 mps 700 mmHg 87%
    06:00 -1°C° 0.2 mm 4 mps 700 mmHg 87%
    07:00 -1°C° 0.2 mm 4 mps 699 mmHg 87%
    08:00 0°C° 0.4 mm 4 mps 699 mmHg 87%
    09:00 +1°C° 0.4 mm 4 mps 700 mmHg 86%
    10:00 +3°C° 0.4 mm 4 mps 700 mmHg 85%
    11:00 +3°C° 0.4 mm 4 mps 700 mmHg 86%
    12:00 +4°C° 0.4 mm 4 mps 700 mmHg 86%
    13:00 +4°C° 0.4 mm 4 mps 700 mmHg 87%
    14:00 +4°C° 0.4 mm 4 mps 700 mmHg 89%
    15:00 +3°C° 0.4 mm 3 mps 701 mmHg 92%
    16:00 +3°C° 0.4 mm 3 mps 701 mmHg 94%
    17:00 +4°C° 0.4 mm 2 mps 701 mmHg 95%
    18:00 +3°C° 0.4 mm 2 mps 702 mmHg 95%
    19:00 +4°C° 0.4 mm 1 mps 702 mmHg 95%
    20:00 +3°C° 0.2 mm 1 mps 703 mmHg 96%
    21:00 +3°C° 0.2 mm 1 mps 703 mmHg 96%
    22:00 +2°C° 0.2 mm 0 mps 703 mmHg 96%
    23:00 +2°C° 0.1 mm 0 mps 703 mmHg 96%

    22 November, Wednesday

    Time Temperature Precipitation Wind Pressure Humidity
    00:00 +3°C° 0.1 mm 1 mps 704 mmHg 96%
    01:00 +3°C° 0.1 mm 1 mps 704 mmHg 96%
    02:00 +3°C° 0.1 mm 1 mps 704 mmHg 95%
    03:00 +3°C° 0.1 mm 1 mps 703 mmHg 95%
    04:00 +3°C° 0.1 mm 1 mps 703 mmHg 95%
    05:00 +4°C° 0.1 mm 1 mps 703 mmHg 95%
    06:00 +3°C° 0.1 mm 2 mps 704 mmHg 95%
    07:00 +3°C° 0.1 mm 2 mps 704 mmHg 94%
    08:00 +4°C° 0.1 mm 2 mps 704 mmHg 93%
    09:00 +5°C° 0.1 mm 2 mps 704 mmHg 91%
    10:00 +6°C° 0.1 mm 2 mps 705 mmHg 90%
    11:00 +6°C° 0 mm 2 mps 705 mmHg 88%
    12:00 +7°C° 0 mm 2 mps 705 mmHg 85%
    13:00 +7°C° 0 mm 2 mps 705 mmHg 83%
    14:00 +6°C° 0 mm 2 mps 705 mmHg 86%
    15:00 +5°C° 0 mm 2 mps 705 mmHg 88%
    16:00 +4°C° 0 mm 2 mps 705 mmHg 91%
    17:00 +4°C° 0 mm 2 mps 706 mmHg 90%
    18:00 +4°C° 0 mm 1 mps 706 mmHg 90%
    19:00 +4°C° 0 mm 1 mps 706 mmHg 89%
    20:00 +4°C° 0 mm 1 mps 707 mmHg 88%
    21:00 +4°C° 0 mm 1 mps 707 mmHg 87%
    22:00 +4°C° 0 mm 1 mps 707 mmHg 87%
    23:00 +3°C° 0 mm 1 mps 707 mmHg 87%

    23 November, Thursday

    Time Temperature Precipitation Wind Pressure Humidity
    00:00 +3°C° 0 mm 1 mps 707 mmHg 87%
    01:00 +3°C° 0 mm 1 mps 707 mmHg 87%
    02:00 +3°C° 0 mm 1 mps 707 mmHg 88%
    03:00 +2°C° 0 mm 2 mps 707 mmHg 88%
    04:00 +2°C° 0 mm 2 mps 707 mmHg 89%
    05:00 +2°C° 0 mm 2 mps 708 mmHg 89%
    06:00 +2°C° 0 mm 2 mps 708 mmHg 89%
    07:00 +1°C° 0 mm 2 mps 708 mmHg 88%
    08:00 +3°C° 0 mm 2 mps 708 mmHg 86%
    09:00 +3°C° 0 mm 3 mps 708 mmHg 83%
    10:00 +4°C° 0 mm 3 mps 709 mmHg 80%
    11:00 +5°C° 0 mm 3 mps 708 mmHg 80%
    12:00 +5°C° 0 mm 3 mps 708 mmHg 79%
    13:00 +7°C° 0 mm 3 mps 708 mmHg 79%
    14:00 +5°C° 0 mm 3 mps 708 mmHg 83%
    15:00 +4°C° 0 mm 3 mps 708 mmHg 86%
    16:00 +3°C° 0 mm 3 mps 708 mmHg 90%
    17:00 +3°C° 0 mm 3 mps 708 mmHg 91%
    18:00 +3°C° 0 mm 3 mps 708 mmHg 91%
    19:00 +2°C° 0 mm 3 mps 709 mmHg 92%
    20:00 +2°C° 0 mm 3 mps 709 mmHg 92%
    21:00 +2°C° 0 mm 3 mps 709 mmHg 92%
    22:00 +3°C° 0 mm 3 mps 709 mmHg 93%
    23:00 +3°C° 0 mm 3 mps 709 mmHg 93%
    Show more